DW1347 Weather Reports


time (UTC)temp
C
wind
direction
speed
KPH
gust
KPH
rain 1hr
cm
rain 24hr
cm
rain mn
cm
humidity
%
barometer
mb
20260503213717 15 264 11.3 12.9 0.00 0.00 0.00 25 1021.7
20260503213213 16 228 3.2 4.8 0.00 0.00 0.00 24 1021.7
20260503212711 16 233 1.6 1.6 0.00 0.00 0.00 25 1022.0
20260503212208 16 21 9.7 11.3 0.00 0.00 0.00 23 1021.8
20260503211706 16 316 6.4 8.0 0.00 0.00 0.00 24 1021.8
20260503211202 16 229 11.3 12.9 0.00 0.00 0.00 25 1022.0
20260503210658 16 233 9.7 12.9 0.00 0.00 0.00 24 1022.3
20260503210155 16 318 6.4 8.0 0.00 0.00 0.00 24 1022.5
20260503205650 16 331 4.8 4.8 0.00 0.00 0.00 24 1022.3
20260503205146 16 287 6.4 9.7 0.00 0.00 0.00 24 1022.3
20260503204643 16 229 4.8 4.8 0.00 0.00 0.00 24 1022.5
20260503204141 15 238 6.4 8.0 0.00 0.00 0.00 24 1022.3
20260503203638 16 359 8.0 12.9 0.00 0.00 0.00 23 1022.5
20260503203135 16 354 14.5 16.1 0.00 0.00 0.00 23 1022.5
20260503202632 16 270 6.4 8.0 0.00 0.00 0.00 22 1022.6
20260503202130 16 274 3.2 3.2 0.00 0.00 0.00 23 1022.7
20260503201628 16 227 8.0 9.7 0.00 0.00 0.00 24 1022.6
20260503201125 16 32 6.4 9.7 0.00 0.00 0.00 23 1022.8
20260503200622 16 220 12.9 16.1 0.00 0.00 0.00 23 1022.7
20260503200118 17 10 11.3 14.5 0.00 0.00 0.00 23 1022.8
20260503195615 17 235 6.4 8.0 0.00 0.00 0.00 23 1022.7
20260503195111 17 242 6.4 8.0 0.00 0.00 0.00 23 1022.6
20260503194609 17 105 1.6 3.2 0.00 0.00 0.00 23 1023.0
20260503194103 16 251 1.6 1.6 0.00 0.00 0.00 25 1023.1
20260503193600 16 211 3.2 3.2 0.00 0.00 0.00 25 1023.3
20260503193055 16 224 9.7 11.3 0.00 0.00 0.00 26 1023.2
20260503192552 16 241 4.8 4.8 0.00 0.00 0.00 24 1023.3
20260503192048 17 221 6.4 8.0 0.00 0.00 0.00 25 1023.2
20260503191545 17 300 4.8 8.0 0.00 0.00 0.00 25 1023.3
20260503191042 17 313 1.6 3.2 0.00 0.00 0.00 24 1023.3
20260503190539 17 284 12.9 14.5 0.00 0.00 0.00 24 1023.3
20260503190037 17 260 8.0 9.7 0.00 0.00 0.00 25 1023.5
20260503185533 16 275 6.4 8.0 0.00 0.00 0.00 25 1024.0
20260503185033 16 68 3.2 3.2 0.00 0.00 0.00 25 1023.5
20260503184529 16 133 6.4 8.0 0.00 0.00 0.00 24 1023.8
20260503184026 16 238 6.4 8.0 0.00 0.00 0.00 28 1024.1
20260503183522 15 224 3.2 4.8 0.00 0.00 0.00 26 1024.1
20260503183019 15 222 9.7 12.9 0.00 0.00 0.00 27 1024.4
20260503182518 16 285 4.8 4.8 0.00 0.00 0.00 25 1024.2
20260503182015 16 107 6.4 8.0 0.00 0.00 0.00 25 1024.5
20260503181512 16 222 3.2 3.2 0.00 0.00 0.00 27 1024.5
20260503181008 16 213 4.8 4.8 0.00 0.00 0.00 27 1024.6
20260503180506 15 338 8.0 11.3 0.00 0.00 0.00 26 1024.4
20260503180003 15 353 6.4 8.0 0.00 0.00 0.00 26 1024.6
20260503175501 15 45 4.8 8.0 0.00 0.00 0.00 27 1024.7
20260503174956 15 225 1.6 3.2 0.00 0.00 0.00 28 1024.9
20260503174455 14 271 6.4 8.0 0.00 0.00 0.00 28 1024.9
20260503173950 14 6 8.0 11.3 0.00 0.00 0.00 27 1025.0
20260503173445 15 222 4.8 4.8 0.00 0.00 0.00 30 1025.1
20260503172943 14 216 1.6 1.6 0.00 0.00 0.00 29 1025.1
20260503172440 14 158 4.8 8.0 0.00 0.00 0.00 28 1025.4
20260503171937 14 222 1.6 3.2 0.00 0.00 0.00 31 1025.4
20260503171433 14 241 4.8 8.0 0.00 0.00 0.00 30 1025.4
20260503170931 14 234 8.0 11.3 0.00 0.00 0.00 29 1025.5
20260503170427 14 219 0.0 0.0 0.00 0.00 0.00 32 1025.5
20260503150814 10 262 6.4 9.7 0.00 0.00 0.00 39 1025.9
20260503150309 10 218 1.6 3.2 0.00 0.00 0.00 49 1026.0
20260503140234 5 225 0.0 0.0 0.00 0.00 0.00 61 1026.4
20260503131203 3 226 1.6 1.6 0.00 0.00 0.00 60 1026.1
20260503130701 2 195 1.6 1.6 0.00 0.00 0.00 58 1026.1
20260503130158 2 211 0.0 0.0 0.00 0.00 0.00 59 1026.0
20260503120118 1 222 0.0 0.0 0.00 0.00 0.00 62 1025.6
20260503110545 2 168 3.2 3.2 0.00 0.00 0.00 57 1025.4
20260503090432 2 217 0.0 0.0 0.00 0.00 0.00 61 1026.2
20260503081358 2 210 0.0 0.0 0.00 0.00 0.00 62 1026.4
20260503080855 1 200 0.0 0.0 0.00 0.00 0.00 62 1026.5
20260503080352 1 203 0.0 0.0 0.00 0.00 0.00 63 1026.5
20260503072829 1 231 0.0 0.0 0.00 0.00 0.00 60 1026.8
20260503072326 1 220 0.0 0.0 0.00 0.00 0.00 60 1027.1
20260503071822 1 176 1.6 1.6 0.00 0.00 0.00 59 1026.8
20260503071320 1 191 1.6 1.6 0.00 0.00 0.00 58 1026.6
20260503070815 1 190 1.6 1.6 0.00 0.00 0.00 58 1026.6
20260503070308 1 195 1.6 1.6 0.00 0.00 0.00 59 1026.9
20260503060232 1 218 0.0 0.0 0.00 0.00 0.00 52 1026.8
20260503054719 1 201 0.0 1.6 0.00 0.00 0.00 52 1026.6
20260503054216 2 213 0.0 0.0 0.00 0.00 0.00 51 1026.9
20260503053714 2 209 0.0 0.0 0.00 0.00 0.00 49 1027.1
20260503053213 2 208 0.0 0.0 0.00 0.00 0.00 46 1026.8
20260503052709 2 130 4.8 4.8 0.00 0.00 0.00 48 1026.6
20260503052206 2 183 1.6 1.6 0.00 0.00 0.00 50 1027.0
20260503051701 2 168 1.6 1.6 0.00 0.00 0.00 49 1027.0
20260503051159 3 226 1.6 1.6 0.00 0.00 0.00 47 1026.9
20260503050655 2 179 3.2 3.2 0.00 0.00 0.00 47 1026.9
20260503050152 3 219 1.6 3.2 0.00 0.00 0.00 46 1027.0
20260503045649 2 204 0.0 0.0 0.00 0.00 0.00 48 1027.1
20260503045146 2 220 0.0 0.0 0.00 0.00 0.00 47 1026.9
20260503044643 3 228 0.0 0.0 0.00 0.00 0.00 49 1026.9
20260503044141 3 175 3.2 3.2 0.00 0.00 0.00 47 1026.8
20260503043637 2 198 0.0 1.6 0.00 0.00 0.00 49 1026.8
20260503043134 3 222 0.0 0.0 0.00 0.00 0.00 49 1026.6
20260503042630 3 195 1.6 1.6 0.00 0.00 0.00 46 1026.9
20260503042126 3 228 0.0 0.0 0.00 0.00 0.00 46 1026.6
20260503041618 3 197 0.0 1.6 0.00 0.00 0.00 48 1026.5
20260503041115 3 199 0.0 0.0 0.00 0.00 0.00 49 1026.9
20260503040612 3 201 0.0 0.0 0.00 0.00 0.00 47 1026.5
20260503040109 3 205 0.0 0.0 0.00 0.00 0.00 48 1026.6
20260503035606 3 201 1.6 1.6 0.00 0.00 0.00 47 1026.8
20260503035103 3 201 0.0 1.6 0.00 0.00 0.00 47 1026.6
20260503034600 3 196 1.6 1.6 0.00 0.00 0.00 47 1027.0
20260503034058 4 222 0.0 0.0 0.00 0.00 0.00 45 1026.5
20260503033555 4 163 3.2 3.2 0.00 0.00 0.00 45 1026.2
20260503033053 5 222 0.0 0.0 0.00 0.00 0.00 45 1026.6
20260503032551 5 211 0.0 0.0 0.00 0.00 0.00 45 1026.8
20260503032049 5 202 1.6 1.6 0.00 0.00 0.00 44 1026.4
20260503031546 5 192 1.6 1.6 0.00 0.00 0.00 42 1026.5
20260503031044 5 210 0.0 0.0 0.00 0.00 0.00 41 1026.8
20260503030539 5 179 1.6 3.2 0.00 0.00 0.00 43 1026.8
20260503030037 5 207 0.0 0.0 0.00 0.00 0.00 43 1026.6
20260503025533 6 206 0.0 0.0 0.00 0.00 0.00 41 1026.5
20260503025031 6 194 0.0 1.6 0.00 0.00 0.00 44 1026.6
20260503024527 6 192 1.6 1.6 0.00 0.00 0.00 41 1026.6
20260503024024 7 210 0.0 0.0 0.00 0.00 0.00 40 1026.4
20260503023521 7 215 0.0 0.0 0.00 0.00 0.00 38 1026.5
20260503023018 7 209 0.0 0.0 0.00 0.00 0.00 38 1026.5
20260503022514 7 214 0.0 0.0 0.00 0.00 0.00 36 1026.4
20260503022009 7 214 0.0 0.0 0.00 0.00 0.00 36 1026.4
20260503021506 8 212 0.0 0.0 0.00 0.00 0.00 32 1026.5
20260503021003 8 201 1.6 1.6 0.00 0.00 0.00 32 1026.4
20260503020500 8 179 1.6 1.6 0.00 0.00 0.00 32 1026.2
20260503015957 8 220 0.0 0.0 0.00 0.00 0.00 32 1026.4
20260503015454 8 213 0.0 0.0 0.00 0.00 0.00 31 1026.1
20260503014950 9 201 1.6 1.6 0.00 0.00 0.00 33 1026.0
20260503014447 10 221 0.0 0.0 0.00 0.00 0.00 34 1025.9
20260503013945 10 221 0.0 0.0 0.00 0.00 0.00 30 1026.0
20260503013442 11 215 0.0 0.0 0.00 0.00 0.00 31 1026.1
20260503012939 11 218 0.0 0.0 0.00 0.00 0.00 27 1026.0
20260503012437 12 190 1.6 1.6 0.00 0.00 0.00 24 1025.9
20260503011933 12 149 3.2 3.2 0.00 0.00 0.00 25 1025.9
20260503011430 13 224 0.0 0.0 0.00 0.00 0.00 23 1025.5
20260503010927 13 315 4.8 4.8 0.00 0.00 0.00 23 1025.5
20260503010424 13 155 1.6 3.2 0.00 0.00 0.00 24 1025.4
20260503005921 13 232 0.0 0.0 0.00 0.00 0.00 23 1025.4
20260503005418 14 0 4.8 4.8 0.00 0.00 0.00 23 1025.5
20260503004915 15 359 3.2 3.2 0.00 0.00 0.00 23 1025.4
20260503004412 15 31 3.2 4.8 0.00 0.00 0.00 23 1025.6
20260503003909 15 164 6.4 8.0 0.00 0.00 0.00 22 1025.5
20260503003405 15 231 0.0 0.0 0.00 0.00 0.00 22 1025.5
20260503002903 15 203 1.6 3.2 0.00 0.00 0.00 21 1025.4
20260503002400 15 205 3.2 3.2 0.00 0.00 0.00 21 1025.6
20260503001856 15 6 11.3 14.5 0.00 0.00 0.00 20 1025.9
20260503001353 15 156 1.6 3.2 0.00 0.00 0.00 21 1025.5
20260503000851 15 154 3.2 3.2 0.00 0.00 0.00 21 1025.5
20260503000348 15 172 4.8 4.8 0.00 0.00 0.00 22 1025.5
20260502235845 14 125 4.8 8.0 0.00 0.00 0.00 21 1025.7
20260502235342 14 187 3.2 3.2 0.00 0.00 0.00 21 1025.9
20260502234838 15 204 3.2 3.2 0.00 0.00 0.00 22 1025.5
20260502234336 15 222 0.0 1.6 0.00 0.00 0.00 21 1025.6
20260502233832 16 142 1.6 1.6 0.00 0.00 0.00 21 1025.9
20260502233328 15 195 3.2 4.8 0.00 0.00 0.00 20 1025.6
20260502232825 15 132 3.2 4.8 0.00 0.00 0.00 21 1025.6
20260502232321 16 97 9.7 11.3 0.00 0.00 0.00 20 1025.5
20260502231818 16 54 3.2 4.8 0.00 0.00 0.00 20 1025.7
20260502231316 16 54 4.8 4.8 0.00 0.00 0.00 21 1025.5
20260502230814 17 150 1.6 3.2 0.00 0.00 0.00 21 1025.9
20260502230312 15 284 3.2 3.2 0.00 0.00 0.00 20 1025.5
20260502225809 16 166 1.6 3.2 0.00 0.00 0.00 21 1025.6
20260502225305 16 281 8.0 9.7 0.00 0.00 0.00 21 1025.5
20260502224801 16 266 11.3 12.9 0.00 0.00 0.00 21 1025.5
20260502224252 17 238 3.2 3.2 0.00 0.00 0.00 22 1025.7
20260502223750 17 168 4.8 9.7 0.00 0.00 0.00 20 1025.6
20260502223248 16 238 3.2 3.2 0.00 0.00 0.00 22 1025.7
20260502222745 16 106 3.2 4.8 0.00 0.00 0.00 22 1025.7
20260502222242 16 13 11.3 11.3 0.00 0.00 0.00 22 1025.9
20260502221737 16 102 6.4 9.7 0.00 0.00 0.00 21 1026.0
20260502221234 16 336 8.0 11.3 0.00 0.00 0.00 22 1026.0
20260502220730 15 35 3.2 4.8 0.00 0.00 0.00 23 1026.1
20260502220227 17 12 16.1 24.1 0.00 0.00 0.00 22 1026.1
20260502215718 17 275 6.4 8.0 0.00 0.00 0.00 22 1025.9
20260502215215 17 201 8.0 12.9 0.00 0.00 0.00 22 1026.1
20260502214713 17 199 0.0 1.6 0.00 0.00 0.00 23 1026.4
20260502214210 16 223 4.8 4.8 0.00 0.00 0.00 25 1026.4